Retour au catalogue

ATLAS 5 CENTAUR R/B

ActifHEO
NORAD 42916·ROCKET BODY·🇺🇸 United States

Lancé Aug 18, 2017 depuis Cape Canaveral Space Force Station

Loading…

Prochains Passages (prochaines 24 heures)

TLE

FraisSource: Space-Track

Époque: Sep 13, 2026, 09:58 UTC

1 42916U 17047B   26256.41593894 -.00000335  00000-0  00000-0 0  9997
2 42916  25.1973 183.5384 5815366 310.3144  11.8436  2.06621761 68494

Suivez ATLAS 5 CENTAUR R/B en temps réel avec AllMySat

Download on the App Store